Regional Weather Roundup
Issued by NWS Midland/Odessa, TX

Home | Current Version | Previous Version | Text Only | Print | Product List | Glossary On
Versions: 1 2 3 4 5 6 7 8 9 10 11 12 13 14 15 16 17 18 19 20 21 22 23 24 25 26 27 28 29 30 31 32 33 34 35 36 37 38 39 40 41 42 43 44 45 46 47 48 49 50
000
ASUS44 KMAF 281302
RWRMAF
MIDLAND AREA WEATHER ROUNDUP
NATIONAL WEATHER SERVICE MIDLAND TX
800 AM CDT MON JUL 28 2014

...IN SOUTHWEST TEXAS AND SOUTHEAST NEW MEXICO...

CITY           SKY/WX    TMP DP  RH WIND       PRES   REMARKS
ALPINE         CLOUDY    73  55  53 SW5       30.32R
ANDREWS        FAIR      73  56  54 CALM      30.22R
ARTESIA        CLOUDY    73  55  53 NW21G29   30.28R
BIG SPRING     MOSUNNY   79  61  53 SE7       30.20R
CARLSBAD       MOCLDY    79  59  50 NW16G28   30.23R
DRYDEN           N/A     82  66  58 E5        30.12R
FORT STOCKTON  CLEAR     75  61  61 S13       30.16S
GUAD PASS      LGT RAIN  69  54  58 N7          N/A
HOBBS          SUNNY     72  55  56 CALM      30.27R
MARFA          MOCLDY    68  55  64 CALM      30.31R
MIDLAND AIRPK  MOSUNNY   78  59  51 CALM      30.19R
MIDLAND INTL   MOSUNNY   78  60  53 SE3       30.18R
ODESSA         MOSUNNY   78  59  51 S5        30.20R
PECOS          CLEAR     74  58  58 NE6       30.13R
PRESIDIO       FAIR      82  59  45 MISG      30.12R
SEMINOLE       MOSUNNY   72  56  58 CALM      30.25R
SNYDER         MOSUNNY   78  60  53 N5        30.20R
WINK           PTCLDY    79  60  52 E7        30.16R
$$
...OTHER STATIONS IN TEXAS...

CITY           SKY/WX    TMP DP  RH WIND       PRES   REMARKS
ABILENE        SUNNY     78  66  66 SE6       30.15R
AMARILLO       CLOUDY    63  61  93 NE22G29   30.35F
AUSTIN         MOSUNNY   74  72  93 SW8       30.11R
BROWNSVILLE    SUNNY     80  78  94 SE6       30.06S
CORPUS CHRISTI MOSUNNY   80  77  90 S9        30.07S
DALLAS FTW     PTSUNNY   83  73  72 N12       30.10R
DEL RIO        SUNNY     79  69  71 E9        30.08R
EL PASO        CLOUDY    74  61  63 N13       30.25R
HOUSTON INT    MOSUNNY   80  76  87 SW7       30.09S
LUBBOCK        PTSUNNY   72  58  61 N16G22    30.27R
SAN ANGELO     SUNNY     78  67  68 CALM      30.14R
SAN ANTONIO    PTSUNNY   78  72  81 S7        30.13R
WACO           SUNNY     79  70  74 S6        30.09R
WICHITA FALLS  NOT AVBL
$$
...OTHER LOCATIONS IN NEW MEXICO...

CITY           SKY/WX    TMP DP  RH WIND       PRES   REMARKS
ALAMAGORDO     CLOUDY    68  68 100 S9        30.29R
ALBUQUERQUE    MOCLDY    72  52  49 E15       30.38R
CANNON AFB     MOSUNNY   64  56  74 NE15      30.36R
CLOVIS         NOT AVBL
HOLLOMAN AFB   CLOUDY    70  66  88 CALM      30.27R
ROSWELL        CLOUDY    76  60  57 W21       30.30R
RUIDOSO        RAIN      55  55 100 SE5       30.55R
SANTA FE       PTCLDY    59  56  89 N6        30.45R
TRUTH OR CONSE CLOUDY    70  60  70 SW6       30.33R
TUCUMCARI      CLOUDY    64  57  78 NE10      30.36R
$$



USA.gov is the U.S. government's official web portal to all federal, state and local government web resources and services.